Sioux City, IA

2:34 PM CST on December 15, 2019 (GMT -0600)
Sioux Gateway

Weather History for KSUX - September, 2019

Change the Weather History Date:

Wednesday, September 18, 2019

  Actual Average Record
Temperature  
Mean Temperature 74 °F 62 °F  
Max Temperature 82 °F 76 °F 101 °F (1895)
Min Temperature 67 °F 49 °F 30 °F (1901)
Degree Days  
Heating Degree Days 0 5  
Month to date heating degree days 0 51  
Since 1 July heating degree days 5 66  
Cooling Degree Days 10 2  
Month to date cooling degree days 123 66  
Year to date cooling degree days 861 843  
Growing Degree Days 24 (Base 50)    
Moisture  
Dew Point 65 °F    
Average Humidity 72    
Maximum Humidity 93    
Minimum Humidity 45    
Precipitation  
Precipitation 0.11 in 0.10 in 3.17 in (1905)
Month to date precipitation 3.80 1.82  
Year to date precipitation 27.89 22.36  
Snow  
Snow 0.00 in 0.00 in 0.00 in ()
Month to date snowfall 0.0 0.0  
Since 1 July snowfall 0.0 0.0  
Since 1 September snowfall 0.0 0.0  
Snow Depth 0.00 in    
Sea Level Pressure  
Sea Level Pressure 29.89 in    
Wind  
Wind Speed 9 mph ()    
Max Wind Speed 22 mph    
Max Gust Speed 34 mph    
Visibility 9.9 miles    
Events Rain , Thunderstorm    
T = Trace of Precipitation, MM = Missing Value Source: Averaged Metar Reports

Daily Weather History Graph

Daily Weather History Graph

Search for Another Location

Airport or City:

Astronomy

Sep. 18, 2019 Rise Set
Actual Time 7:08 AM CDT 7:30 PM CDT
Civil Twilight 6:40 AM CDT 7:58 PM CDT
Nautical Twilight 6:07 AM CDT 8:31 PM CDT
Astronomical Twilight 5:33 AM CDT 9:05 PM CDT
Moon 9:59 PM CDT (9/18) 11:17 AM CDT (9/18)
Length of Visible Light 13h 18m
Length of Day
12h 21m
Waning Gibbous, 82% of the Moon is Illuminated
Sep 18
Waning Gibbous
Sep 21
Last Quarter
Sep 28
New
Oct 5
First Quarter
Oct 13
Full

Hourly Weather History & Observations

Time (CDT) Temp. Heat Index Dew Point Humidity Pressure Visibility Wind Dir Wind Speed Gust Speed Precip Events Conditions
12:52 AM 75.9 °F - 68.0 °F 76% 29.82 in 10.0 mi SSE 12.7 mph - N/A   Clear
1:52 AM 75.9 °F - 68.0 °F 76% 29.82 in 10.0 mi SSE 15.0 mph - N/A   Clear
2:49 AM 75.2 °F - 68.0 °F 78% 29.83 in 10.0 mi SSE 11.5 mph - 0.01 in Thunderstorm Clear
2:52 AM 75.9 °F - 68.0 °F 76% 29.81 in 10.0 mi SSE 13.8 mph - 0.01 in Thunderstorm Clear
3:04 AM 75.9 °F - 66.9 °F 74% 29.83 in 10.0 mi South 16.1 mph 25.3 mph N/A   Clear
3:52 AM 78.1 °F - 66.9 °F 68% 29.79 in 10.0 mi South 19.6 mph 34.5 mph N/A Thunderstorm Mostly Cloudy
4:13 AM 75.9 °F - 66.9 °F 74% 29.82 in 6.0 mi South 20.7 mph 31.1 mph 0.00 in Rain Light Rain
4:52 AM 75.0 °F - 66.9 °F 76% 29.80 in 10.0 mi North - - 0.10 in   Scattered Clouds
5:52 AM 73.9 °F - 66.9 °F 79% 29.81 in 10.0 mi South 17.3 mph 27.6 mph 0.00 in   Mostly Cloudy
6:52 AM 73.0 °F - 66.9 °F 81% 29.83 in 10.0 mi South 13.8 mph - N/A   Clear
7:52 AM 72.0 °F - 66.9 °F 84% 29.86 in 10.0 mi SSW 11.5 mph - N/A   Partly Cloudy
8:52 AM 75.0 °F - 69.1 °F 82% 29.87 in 10.0 mi SW 3.5 mph - N/A   Clear
9:52 AM 78.1 °F - 69.1 °F 74% 29.89 in 10.0 mi West 6.9 mph - N/A   Clear
10:52 AM 77.0 °F - 64.9 °F 66% 29.89 in 10.0 mi NW 13.8 mph - N/A   Clear
11:52 AM 78.1 °F - 59.0 °F 52% 29.91 in 10.0 mi NNW 11.5 mph - N/A   Clear
12:52 PM 78.1 °F - 60.1 °F 54% 29.92 in 10.0 mi WNW 6.9 mph - N/A   Clear
1:52 PM 80.1 °F 80.6 °F 57.9 °F 47% 29.92 in 10.0 mi Variable 3.5 mph - N/A   Clear
2:52 PM 81.0 °F 81.6 °F 60.1 °F 49% 29.91 in 10.0 mi NNW 3.5 mph - N/A   Scattered Clouds
3:37 PM 73.9 °F - 62.1 °F 66% 29.93 in 10.0 mi NW 6.9 mph - 0.00 in Rain , Thunderstorm Light Rain
3:52 PM 75.0 °F - 63.0 °F 66% 29.91 in 10.0 mi NNW 4.6 mph - 0.00 in Rain , Thunderstorm Light Thunderstorms and Rain
4:20 PM 77.0 °F - 62.1 °F 60% 29.92 in 10.0 mi NW 4.6 mph - 0.00 in   Scattered Clouds
4:23 PM 75.9 °F - 63.0 °F 64% 29.92 in 10.0 mi NW 4.6 mph - 0.00 in Thunderstorm Scattered Clouds
4:52 PM 79.0 °F - 63.0 °F 58% 29.90 in 10.0 mi NW 4.6 mph - 0.00 in Thunderstorm Mostly Cloudy
5:00 PM 80.1 °F 81.2 °F 62.1 °F 54% 29.92 in 10.0 mi NW 6.9 mph - N/A   Mostly Cloudy
5:52 PM 81.0 °F 81.6 °F 60.1 °F 49% 29.89 in 10.0 mi Calm Calm - N/A   Clear
6:52 PM 81.0 °F 81.3 °F 59.0 °F 47% 29.89 in 10.0 mi Calm Calm - N/A   Clear
7:52 PM 73.9 °F - 68.0 °F 82% 29.91 in 10.0 mi Calm Calm - N/A   Mostly Cloudy
8:52 PM 73.0 °F - 66.0 °F 79% 29.91 in 10.0 mi Calm Calm - N/A   Mostly Cloudy
9:52 PM 72.0 °F - 68.0 °F 87% 29.92 in 10.0 mi Calm Calm - N/A   Overcast
10:30 PM 70.0 °F - 68.0 °F 93% 29.94 in 10.0 mi Calm Calm - N/A Thunderstorm Partly Cloudy
10:52 PM 71.1 °F - 66.9 °F 87% 29.96 in 10.0 mi WNW 4.6 mph - 0.00 in Rain Light Rain
11:11 PM 70.0 °F - 66.9 °F 90% 29.98 in 10.0 mi Variable 3.5 mph - 0.00 in Rain , Thunderstorm Light Thunderstorms and Rain
11:25 PM 70.0 °F - 66.0 °F 87% 29.97 in 10.0 mi NNW 3.5 mph - 0.00 in Rain Light Rain
11:41 PM 69.1 °F - 64.9 °F 87% 29.98 in 10.0 mi NW 5.8 mph - 0.00 in Thunderstorm Mostly Cloudy
11:52 PM 69.1 °F - 64.9 °F 87% 29.95 in 10.0 mi North 4.6 mph - 0.00 in Rain Light Rain